Showing default

PROPCUBE 1, 40976

Orbit data source: Space-Track

PROPCUBE 1, 40976 is a payload satellite owned by USN PGS (US) in LEO that was launched on Thu, 08 Oct 2015 UTC via an ATLAS V 401 launch vehicle from the Air Force Western Test Range (AFWTR). Payload-class satellites include a variety of spacecraft equipped with specific instruments for various scientific and technological missions. These include communications satellites like Starlink; space stations such as the ISS; scientific satellites like the Hubble; Earth observation satellites from companies like Planet Labs, Umbra, and HawkEye 360; GPS; miniature CubeSats for education and research; and military/defense satellites.

Loading next visibility...
Identifier
40976, 2015-058N
Orbit
LEO
Country
Flag of USUS
Related business
Manufacturer
Tyvak NSS
Mission
Operational Defense Technology
Bus & Motor
CUBESAT 1U, Unknown motor
Mass
1 kg wet, 1 kg dry
Launch date (UTC)
2015-10-08 (10 years ago)
Launch vehicle
ATLAS V 401
Launch site
Air Force Western Test Range (AFWTR)
Object type
Payload
Rocket body
Debris
Shape & HBR
Box, 0.1 m
Radar Cross Section
0.015 m², Medium (>0.1 m² and < 1m²)

Expand to show TLE details & history
Last TLE update: 5 hours ago

TLE from 5 hours ago
0 PROPCUBE 1
1 40976U 15058N   25310.27413646  .00003346  00000-0  32093-3 0  9995
2 40976  64.7746 265.3351 0141195 147.5123 213.4778 14.87644218 83087
Epoch: 2025-11-06T06:34Z
TLE epoch observation values (Epoch: 2025-11-06T06:34:45.390Z)
Latitude
-0.00001°
Longitude
120.91116°
Altitude
689.973 km
Speed
7.467 km/s
True Right ascension
17h 41m 20s
True Declination
0° 00' 00"
Sunlit
Object was in daylight at epoch
Visualization orbit readout
Latitude
Unknown
Longitude
Unknown
Altitude
Unknown
Speed
Unknown
Apparent Right ascension
Unknown
Apparent Declination
Unknown
Sunlit
N/A
Visualization observer readout
Local Sidereal Time
07:38:53
Azimuth
Unknown
Elevation
Unknown
Doppler factor
Unknown
Orbital elements
Apogee altitude
702.45 km
Perigee altitude
505.285 km
Semi-major axis
6,982.004 km
Eccentricity
0.01412
Inclination
64.7746°
RAAN
265.3351°
Arg. of periapsis
147.5123°
True anomaly
212.59829°
Mean anomaly
213.4778°
Eccentric anomaly
213.03676°
Mean motion
3.72026 °/min
Orbital period
96.77 mins
BSTAR
0.00032093
Loading maneuver chart data...
Computing Atmospheric mass density...
Loading historical data...
Loading historical data...
Loading historical data...
Loading historical data...
Loading historical data...
Loading historical data...
Loading historical data...

Documentation

Showing up to 5 results
|